Tracking 30106 objects as of 23-Jan-2025
HD Live streaming from Space Station
objects crossing your sky now

MDASAT-1A

Track MDASAT-1A now!
10-day predictions
MDASAT-1A is classified as:


NORAD ID: 50995
Int'l Code: 2022-002M
Perigee: 398.7 km
Apogee: 403.0 km
Inclination: 97.4 °
Period: 92.4 minutes
Semi major axis: 6771 km
RCS: Unknown
Launch date: January 13, 2022
Source: South Africa (SAFR)
Launch site: AIR FORCE EASTERN TEST RANGE (AFETR)

Uplink (MHz):
Downlink (MHz): 401.075
Beacon (MHz):
Mode: FM
Call sign:
Status: Inactive

Your satellite tracking list
Your tracking list is empty




NASA's NSSDC Master Catalog

Two Line Element Set (TLE):
1 50995U 22002M   25023.17130314  .00092899  00000-0  12330-2 0  9994
2 50995  97.3538  98.8576 0003181 315.2190  44.8809 15.57918533168388
Source of the keplerian elements: AFSPC